Point Hope, AK

11:37 AM AKST on December 15, 2017 (GMT -0900)
Point Hope

Weather History for PAPO - December, 2013

Change the Weather History Date:

Sunday, December 29, 2013

  Actual Average Record
Temperature  
Mean Temperature -10 °F -  
Max Temperature 6 °F 3 °F 27 °F (2016)
Min Temperature -27 °F -2 °F -27 °F (2013)
Degree Days  
Heating Degree Days 76    
Moisture  
Dew Point -11 °F    
Average Humidity 72    
Maximum Humidity 85    
Minimum Humidity 53    
Precipitation  
Precipitation 0.00 in - - ()
Sea Level Pressure  
Sea Level Pressure 29.97 in    
Wind  
Wind Speed 5 mph (East)    
Max Wind Speed 10 mph    
Max Gust Speed -    
Visibility 10 miles    
Events      
Averages and records for this station are not official NWS values.
T = Trace of Precipitation, MM = Missing Value Source: NWS Daily Summary

Daily Weather History Graph

Daily Weather History Graph

Search for Another Location

Airport or City:

Trip Planner

Search our weather history database for the weather conditions in past years. The results will help you decide how hot, cold, wet, or windy it might be!

Date:

Astronomy

Dec. 29, 2013 Rise Set
Actual Time 1:37 PM AKST 2:41 PM AKST
Civil Twilight 11:31 AM AKST 4:48 PM AKST
Nautical Twilight 10:00 AM AKST 6:18 PM AKST
Astronomical Twilight 8:48 AM AKST 7:31 PM AKST
Moon 9:16 AM AKST (12/29) 1:46 PM AKST (12/29)
Length of Visible Light 5h 17m
Length of Day
1h 04m
Waning Crescent, 10% of the Moon is Illuminated
Dec 29
Waning Crescent
Jan 1
New
Jan 7
First Quarter
Jan 15
Full
Jan 23
Last Quarter

Hourly Weather History & Observations

Time (AKST) Temp. Windchill Dew Point Humidity Pressure Visibility Wind Dir Wind Speed Gust Speed Precip Events Conditions
12:16 AM -18.4 °F -33.4 °F -25.6 °F 70% 30.00 in 10.0 mi East 5.8 mph - N/A   Clear
12:36 AM -14.8 °F -29.1 °F -22.0 °F 70% 30.00 in 10.0 mi East 5.8 mph - N/A   Clear
12:56 AM -18.4 °F -31.4 °F -27.4 °F 63% 30.00 in 10.0 mi NE 4.6 mph - N/A   Clear
1:16 AM -20.2 °F -30.9 °F - N/A% 30.00 in 10.0 mi NE 3.5 mph - N/A   Clear
1:36 AM -27.4 °F -50.3 °F - N/A% 30.01 in 10.0 mi East 10.4 mph - N/A   Clear
1:56 AM -18.4 °F - -27.4 °F 63% 30.01 in 10.0 mi Calm Calm - N/A   Clear
2:16 AM -14.8 °F -24.8 °F -20.2 °F 77% 30.00 in 10.0 mi NNE 3.5 mph - N/A   Clear
2:36 AM -11.2 °F - -18.4 °F 70% 30.00 in 10.0 mi Calm Calm - N/A   Clear
2:56 AM -20.2 °F -35.5 °F - N/A% 30.00 in 10.0 mi East 5.8 mph - N/A   Mostly Cloudy
3:16 AM -14.8 °F -29.1 °F -27.4 °F 53% 30.00 in 10.0 mi East 5.8 mph - N/A   Overcast
3:36 AM -9.4 °F - -16.6 °F 71% 29.99 in 10.0 mi Calm Calm - N/A   Overcast
3:56 AM -13.0 °F -22.7 °F -20.2 °F 70% 30.00 in 10.0 mi East 3.5 mph - N/A   Overcast
4:16 AM -7.6 °F - -14.8 °F 71% 29.99 in 10.0 mi Calm Calm - N/A   Overcast
4:36 AM -13.0 °F -22.7 °F -23.8 °F 59% 29.99 in 10.0 mi East 3.5 mph - N/A   Overcast
4:56 AM -11.2 °F - -20.2 °F 64% 29.99 in 10.0 mi Calm Calm - N/A   Overcast
5:16 AM -16.6 °F -26.8 °F -23.8 °F 70% 29.99 in 10.0 mi ENE 3.5 mph - N/A   Overcast
5:36 AM -14.8 °F -29.1 °F -23.8 °F 64% 29.99 in 10.0 mi ENE 5.8 mph - N/A   Overcast
5:56 AM -11.2 °F -29.0 °F -18.4 °F 70% 29.99 in 10.0 mi East 9.2 mph - N/A   Overcast
6:16 AM -11.2 °F -27.8 °F -18.4 °F 70% 29.99 in 10.0 mi East 8.1 mph - N/A   Overcast
6:36 AM -11.2 °F -23.0 °F -20.2 °F 64% 29.98 in 10.0 mi ESE 4.6 mph - N/A   Overcast
6:56 AM -9.4 °F -18.6 °F -14.8 °F 77% 29.98 in 10.0 mi ESE 3.5 mph - N/A   Overcast
7:16 AM -2.2 °F -16.8 °F -9.4 °F 71% 29.98 in 10.0 mi SE 8.1 mph - N/A   Overcast
7:36 AM -9.4 °F -24.3 °F -22.0 °F 54% 29.98 in 10.0 mi East 6.9 mph - N/A   Overcast
7:56 AM -9.4 °F -24.3 °F -20.2 °F 59% 29.98 in 10.0 mi East 6.9 mph - N/A   Overcast
8:16 AM -9.4 °F -20.9 °F -16.6 °F 71% 29.98 in 10.0 mi ESE 4.6 mph - N/A   Overcast
8:36 AM -5.8 °F -22.4 °F -13.0 °F 71% 29.98 in 10.0 mi SE 9.2 mph - N/A   Overcast
8:56 AM -0.4 °F -15.7 °F -5.8 °F 78% 29.98 in 10.0 mi SSE 9.2 mph - N/A   Overcast
9:16 AM -0.4 °F -15.7 °F -7.6 °F 72% 29.98 in 10.0 mi SSE 9.2 mph - N/A   Overcast
9:56 AM -0.4 °F -15.7 °F -7.6 °F 72% 29.98 in 10.0 mi South 9.2 mph - N/A   Overcast
10:16 AM -2.2 °F -18.0 °F -9.4 °F 71% 29.98 in 10.0 mi South 9.2 mph - N/A   Mostly Cloudy
10:36 AM -2.2 °F -18.0 °F -9.4 °F 71% 29.99 in 10.0 mi South 9.2 mph - N/A   Partly Cloudy
10:56 AM -2.2 °F -16.8 °F -11.2 °F 66% 29.99 in 10.0 mi South 8.1 mph - N/A   Clear
11:16 AM -2.2 °F -15.6 °F -9.4 °F 71% 29.99 in 10.0 mi South 6.9 mph - N/A   Clear
11:36 AM -4.0 °F -19.0 °F - N/A% 30.00 in 10.0 mi South 8.1 mph - N/A   Clear
11:56 AM -4.0 °F -19.0 °F - N/A% 29.99 in 10.0 mi South 8.1 mph - N/A   Clear
12:16 PM -4.0 °F -17.8 °F -11.2 °F 71% 30.00 in 10.0 mi South 6.9 mph - N/A   Clear
12:36 PM -4.0 °F -16.3 °F -11.2 °F 71% 29.99 in 10.0 mi South 5.8 mph - N/A   Partly Cloudy
12:56 PM -2.2 °F -15.6 °F -11.2 °F 66% 29.99 in 10.0 mi South 6.9 mph - N/A   Clear
1:16 PM -4.0 °F -16.3 °F -11.2 °F 71% 29.99 in 10.0 mi South 5.8 mph - N/A   Clear
1:36 PM -2.2 °F -12.5 °F -9.4 °F 71% 29.99 in 10.0 mi South 4.6 mph - N/A   Clear
1:56 PM -11.2 °F -24.8 °F -18.4 °F 70% 29.99 in 1.5 mi East 5.8 mph - N/A   Scattered Clouds
2:16 PM -11.2 °F -26.4 °F -20.2 °F 64% 29.99 in 1.5 mi ENE 6.9 mph - N/A   Scattered Clouds
2:56 PM -5.8 °F - -9.4 °F 84% 29.99 in 10.0 mi Calm Calm - N/A   Overcast
3:16 PM -5.8 °F - -14.8 °F 65% 29.99 in 10.0 mi Calm Calm - N/A   Overcast
3:36 PM -2.2 °F - -7.6 °F 78% 29.99 in 10.0 mi Calm Calm - N/A   Overcast
3:56 PM -2.2 °F - -7.6 °F 78% 29.98 in 10.0 mi Calm Calm - N/A   Overcast
4:16 PM -4.0 °F - -11.2 °F 71% 29.98 in 10.0 mi Calm Calm - N/A   Overcast
4:36 PM -0.4 °F - -5.8 °F 78% 29.97 in 3.0 mi Calm Calm - N/A   Overcast
4:56 PM -0.4 °F - -7.6 °F 72% 29.97 in 9.0 mi Calm Calm - N/A   Overcast
5:16 PM -2.2 °F - -7.6 °F 78% 29.97 in 10.0 mi Calm Calm - N/A   Overcast
5:36 PM -0.4 °F - -5.8 °F 78% 29.97 in 10.0 mi Calm Calm - N/A   Overcast
5:56 PM -0.4 °F -10.4 °F -9.4 °F 66% 29.96 in 10.0 mi NNE 4.6 mph - N/A   Overcast
6:16 PM -0.4 °F -10.4 °F -5.8 °F 78% 29.96 in 10.0 mi NE 4.6 mph - N/A   Overcast
6:36 PM -0.4 °F -10.4 °F -5.8 °F 78% 29.95 in 10.0 mi NNE 4.6 mph - N/A   Overcast
6:56 PM -0.4 °F -10.4 °F -7.6 °F 72% 29.95 in 10.0 mi North 4.6 mph - N/A   Overcast
7:16 PM 1.4 °F -8.3 °F -5.8 °F 72% 29.95 in 10.0 mi NNE 4.6 mph - N/A   Overcast
7:36 PM 1.4 °F -8.3 °F -2.2 °F 85% 29.95 in 10.0 mi NNE 4.6 mph - N/A   Overcast
7:56 PM 3.2 °F -7.8 °F -4.0 °F 72% 29.94 in 10.0 mi NNE 5.8 mph - N/A   Overcast
8:16 PM 3.2 °F -7.8 °F -2.2 °F 78% 29.94 in 10.0 mi NNE 5.8 mph - N/A   Overcast
8:36 PM 3.2 °F -7.8 °F -2.2 °F 78% 29.94 in 10.0 mi NE 5.8 mph - N/A   Overcast
8:56 PM 3.2 °F -9.1 °F -2.2 °F 78% 29.93 in 10.0 mi NE 6.9 mph - N/A   Overcast
9:16 PM 3.2 °F -9.1 °F -2.2 °F 78% 29.93 in 10.0 mi NE 6.9 mph - N/A   Overcast
9:36 PM 3.2 °F -10.3 °F -2.2 °F 78% 29.93 in 10.0 mi NE 8.1 mph - N/A   Overcast
9:56 PM 3.2 °F -9.1 °F -0.4 °F 85% 29.92 in 10.0 mi NE 6.9 mph - N/A   Overcast
10:16 PM 3.2 °F -7.8 °F -0.4 °F 85% 29.92 in 10.0 mi NE 5.8 mph - N/A   Overcast
10:36 PM 3.2 °F -10.3 °F -2.2 °F 78% 29.91 in 10.0 mi NE 8.1 mph - N/A   Overcast
10:56 PM 3.2 °F -9.1 °F -2.2 °F 78% 29.91 in 10.0 mi NE 6.9 mph - N/A   Overcast
11:16 PM 5.0 °F -6.9 °F 1.4 °F 85% 29.91 in 10.0 mi NE 6.9 mph - N/A   Overcast
11:36 PM 6.8 °F -5.9 °F 1.4 °F 79% 29.90 in 9.0 mi NE 8.1 mph - N/A   Overcast
11:56 PM 6.8 °F -5.9 °F 3.2 °F 85% 29.90 in 10.0 mi NE 8.1 mph - N/A   Overcast